Hauptseite
METAR-TAF:

METAR-TAF

Flughäfen :

Colmar, Frankreich

Flughafen Colmar

Breite: 48-06-37N, Länge: 7-21-33E, Höhe: 191 m

Beobachtung

Neuester Wetterbericht von vor 21 Minuten, um 05:30 UTC
Wind 3 kt aus West, variierte zwischen Südwest und Nord
Temperatur 11°C
Luftfeuchtigkeit 71%
Luftdruck 1020 hPa
Sichtweite 10 km oder mehr
Geschlossene Wolkendecke in der Höhe von 5000 ft

METAR: LFGA 260530Z AUTO 27003KT 230V350 9999 OVC050 11/06 Q1020

Zeit: 07:51 (05:51 UTC)


TAF: fehlend

Wetterbeobachtungen und Prognosen von mehr als 4000 Flughäfen (METAR und TAF Bericht).

Die verfügbaren Stationen werden durch gelbe und rote Markierungen auf der Karte dargestellt.

Führen Sie die Maus auf sie, um den Namen der Station zu sehen.

Darauf klicken, um die Beobachtung von Wetterbeobachtungen und Prognosen zu sehen.

Um die Karte zu ändern : klicken Sie auf den grünen Tasten mit einem schwarzen Kreuz Zum Vergrößern, auf den grünen Button mit einem Gedankenstrich zu verkleinern, oder auf die grünen Pfeile für benachbarte Karten.


METAR-TAF: